Showing default

METEOR M2-3, 57166

Orbit data source: Space-Track

METEOR M2-3, 57166 is a Commonwealth of Independent States-origin payload satellite in SSO that was launched on Tue, 27 Jun 2023 UTC via a SOYUZ-2-1B launch vehicle from the Vostochny Cosmodrome (VOSTO). Payload-class satellites include a variety of spacecraft equipped with specific instruments for various scientific and technological missions. These include communications satellites like Starlink; space stations such as the ISS; scientific satellites like the Hubble; Earth observation satellites from companies like Planet Labs, Umbra, and HawkEye 360; GPS; miniature CubeSats for education and research; and military/defense satellites.

Loading next visibility...
Identifier
57166, 2023-091A
Orbit
SSO
Country
Flag of CISCIS
Related business
Manufacturer
VNIIEM
Mission
Operational Civil Weather
Bus & Motor
RESURS-O, Unknown motor
Mass
2,879 kg wet, ~2,600 kg dry
Launch date (UTC)
2023-06-27 (3 years ago)
Launch vehicle
SOYUZ-2-1B
Launch site
Vostochny Cosmodrome (VOSTO)
Object type
Payload
Rocket body
Debris
Shape & HBR
Cyl + 2 Pan, 7.0 m
Radar Cross Section
26.744 m², Large (>1 m²)

Expand to show TLE details & history
Last TLE update: 10 hours ago

TLE from 10 hours ago
0 METEOR M2-3
1 57166U 23091A   26131.21072601 -.00000015  00000-0  12193-4 0  9999
2 57166  98.6110 186.9403 0002769 280.3687  79.7180 14.24043555149257
Epoch: 2026-05-11T05:03Z
TLE epoch observation values (Epoch: 2026-05-11T05:03:26.727Z)
Latitude
0.00001°
Longitude
-117.92378°
Altitude
814.278 km
Speed
7.446 km/s
True Right ascension
12h 27m 45s
True Declination
0° 00' 00"
Sunlit
Object was in full shadow at epoch
Visualization orbit readout
Latitude
Unknown
Longitude
Unknown
Altitude
Unknown
Speed
Unknown
Apparent Right ascension
Unknown
Apparent Declination
Unknown
Sunlit
N/A
Visualization observer readout
Local Sidereal Time
23:04:46
Azimuth
Unknown
Elevation
Unknown
Doppler factor
Unknown
Orbital elements
Apogee altitude
810.849 km
Perigee altitude
806.869 km
Semi-major axis
7,186.996 km
Eccentricity
0.00028
Inclination
98.611°
RAAN
186.9403°
Arg. of periapsis
280.3687°
True anomaly
79.74922°
Mean anomaly
79.718°
Eccentric anomaly
79.73361°
Mean motion
3.56223 °/min
Orbital period
101.06 mins
BSTAR
0.000012193
Loading maneuver chart data...
Computing Atmospheric mass density...
Loading historical data...
Loading historical data...
Loading historical data...
Loading historical data...
Loading historical data...
Loading historical data...
Loading historical data...

Documentation

Showing up to 5 results
|